Torna al catalogo

USA 464

AttivoMilitareVLEO
NORAD 62533·PAYLOAD·🇺🇸 United States

Lanciato Jan 10, 2025 da Vandenberg Space Force Base

Loading…

Prossimi Passaggi (prossime 24 ore)

TLE

ObsoletoSource: Mike McCants

Epoca: Aug 25, 2026, 01:41 UTC

1 62533U 25005B   26237.07047296 0.00000000  00000-0  00000-0 0    09
2 62533  70.0154 228.9580 0002000 151.8741 208.1258 14.96713568    07

Traccia USA 464 in tempo reale con AllMySat

Download on the App Store